This is the latest recevied weather packets stored in our database for station/object N4AN. If no packets are shown the sender has not sent any weather packets the latest 10 day(s).
| Time | Temp. | Humidity | Pressure | Rain* | Wind** | Luminosity | Snow |
|---|---|---|---|---|---|---|---|
| 1787485639 | 29.44° C | 76% | 1011 hPa | 0 mm | - | - | - |
| 1787485474 | 29.44° C | 75% | 1011 hPa | 0 mm | - | - | - |
| 1787485337 | 29.44° C | 75% | 1011 hPa | 0 mm | - | - | - |
| 1787485034 | 29.44° C | 76% | 1010.9 hPa | 0 mm | - | - | - |
| 1787484734 | 29.44° C | 78% | 1010.7 hPa | 0 mm | - | - | - |
| 1787484433 | 28.89° C | 79% | 1010.8 hPa | 0 mm | - | - | - |
| 1787484132 | 28.89° C | 80% | 1010.7 hPa | 0 mm | - | - | - |
| 1787483830 | 28.89° C | 81% | 1010.7 hPa | 0 mm | - | - | - |
| 1787483529 | 28.89° C | 80% | 1010.7 hPa | 0 mm | - | - | - |
| 1787483229 | 28.89° C | 80% | 1010.6 hPa | 0 mm | - | - | - |
| 1787482929 | 28.33° C | 81% | 1010.5 hPa | 0 mm | - | - | - |
| 1787482628 | 27.78° C | 82% | 1010.5 hPa | 0 mm | - | - | - |
| 1787482327 | 28.33° C | 82% | 1010.5 hPa | 0 mm | - | - | - |
| 1787482026 | 28.33° C | 82% | 1010.5 hPa | 0 mm | - | - | - |
| 1787481725 | 28.33° C | 81% | 1010.5 hPa | 0 mm | - | - | - |
| 1787481424 | 28.89° C | 79% | 1010.6 hPa | 0 mm | - | - | - |
| 1787481124 | 29.44° C | 79% | 1010.3 hPa | 0 mm | - | - | - |
| 1787480824 | 29.44° C | 79% | 1010.4 hPa | 0 mm | - | - | - |
| 1787480523 | 29.44° C | 78% | 1010.3 hPa | 0 mm | - | - | - |
| 1787480223 | 29.44° C | 78% | 1010.2 hPa | 0 mm | - | - | - |
| 1787479923 | 29.44° C | 78% | 1010.2 hPa | 0 mm | - | - | - |
| 1787479621 | 29.44° C | 78% | 1010.1 hPa | 0 mm | - | - | - |
| 1787479320 | 29.44° C | 78% | 1010.2 hPa | 0 mm | - | - | - |
| 1787479020 | 29.44° C | 78% | 1010.1 hPa | 0 mm | - | - | - |
| 1787478720 | 30° C | 78% | 1010.1 hPa | 0 mm | - | - | - |
* Rain latest hour (hover to see other rain measurements)
** Current wind speed in m/s (hover to see current wind gust speed)